QPF
0.00 0.00 0.00 0.00 0.00 0.00 0.00 0.00 0.00 0.00 0.00 0.00 0.00 0.00 0.00 0.00 0.00 0.00 0.00 0.00 0.00 0.00 0.00 0.00 0.00 0.00 0.00 0.00 0.02 0.01 0.07 0.19 0.04 0.00 0.00 0.00 0.00 0.00 0.00 0.00 0.00 0.00 0.00 0.00 0.00 0.00 0.00 0.00 0.00
0.00 0.00 0.00 0.00 0.00 0.00 0.00 0.00 0.00 0.00 0.00 0.00 0.00 0.00 0.00 0.00 0.00 0.00 0.00 0.00 0.00 0.00 0.00 0.00 0.00 0.00 0.00 0.01 0.04 0.02 0.13 0.16 0.01 0.00 0.00 0.00 0.00 0.00 0.00 0.00 0.00 0.00 0.00 0.00 0.00 0.00 0.00 0.00 0.00
0.00 0.00 0.00 0.00 0.00 0.00 0.00 0.00 0.00 0.00 0.00 0.00 0.00 0.00 0.00 0.00 0.00 0.00 0.00 0.00 0.00 0.00 0.00 0.00 0.00 0.00 0.00 0.01 0.03 0.02 0.16 0.07 0.00 0.00 0.00 0.00 0.00 0.00 0.00 0.00 0.00 0.00 0.00 0.00 0.00 0.00 0.00 0.00 0.00
0.00 0.00 0.00 0.00 0.00 0.00 0.00 0.00 0.00 0.00 0.00 0.00 0.00 0.00 0.00 0.00 0.00 0.00 0.00 0.00 0.00 0.00 0.00 0.00 0.00 0.00 0.00 0.01 0.02 0.02 0.05 0.01 0.00 0.00 0.00 0.00 0.00 0.00 0.00 0.00 0.00 0.00 0.00 0.00 0.00 0.00 0.00 0.00 0.00
0.00 0.00 0.00 0.00 0.00 0.00 0.00 0.00 0.00 0.00 0.00 0.00 0.00 0.00 0.00 0.00 0.00 0.00 0.00 0.00 0.00 0.00 0.00 0.00 0.00 0.00 0.00 0.00 0.00 0.00 0.00 0.00 0.00 0.00 0.00 0.00 0.00 0.00 0.00 0.00 0.00 0.00 0.00 0.00 0.00 0.00 0.00 0.00 0.00
0.00 0.00 0.00 0.00 0.00 0.00 0.00 0.00 0.00 0.00 0.00 0.00 0.00 0.00 0.00 0.00 0.00 0.00 0.00 0.00 0.00 0.00 0.00 0.00 0.00 0.00 0.00 0.00 0.00 0.00 0.00 0.00 0.00 0.00 0.00 0.00 0.00 0.00 0.00 0.00 0.00 0.00 0.00 0.00 0.00 0.00 0.00 0.00 0.00
0.00 0.00 0.00 0.00 0.00 0.00 0.00 0.00 0.00 0.00 0.00 0.00 0.00 0.00 0.00 0.00 0.00 0.00 0.00 0.00 0.00 0.00 0.00 0.00 0.00 0.00 0.00 0.00 0.00 0.00 0.00 0.00 0.00 0.00 0.00 0.00 0.00 0.00 0.00 0.00 0.00 0.00 0.00 0.00 0.00 0.00 0.00 0.00 0.00
0.00 0.00 0.00 0.00 0.00 0.00 0.00 0.00 0.00 0.00 0.00 0.00 0.00 0.00 0.00 0.00 0.00 0.00 0.00 0.00 0.00 0.00 0.00 0.00 0.00 0.00 0.00 0.00 0.00 0.00 0.00 0.00 0.00 0.00 0.00 0.00 0.00 0.00 0.00 0.00 0.00 0.00 0.00 0.00 0.00 0.00 0.00 0.00 0.00
0.00 0.00 0.00 0.00 0.00 0.00 0.00 0.00 0.00 0.00 0.01 0.00 0.00 0.00 0.00 0.00 0.00 0.00 0.00 0.00 0.01 0.00 0.00 0.00 0.00 0.00 0.00 0.00 0.00 0.00 0.00 0.00 0.00 0.00 0.00 0.00 0.00 0.00 0.00 0.00 0.00 0.00 0.00 0.00 0.00 0.00 0.00 0.00 0.00
0.00 0.00 0.00 0.00 0.00 0.00 0.00 0.00 0.00 0.00 0.00 0.00 0.00 0.00 0.00 0.00 0.00 0.00 0.00 0.00 0.00 0.00 0.00 0.00 0.00 0.00 0.00 0.00 0.00 0.00 0.00 0.00 0.00 0.00 0.00 0.00 0.00 0.00 0.00 0.00 0.00 0.00 0.00 0.00 0.00 0.00 0.00 0.00 0.00
0.00 0.00 0.00 0.00 0.00 0.00 0.00 0.00 0.00 0.00 0.00 0.00 0.00 0.00 0.00 0.00 0.00 0.00 0.00 0.00 0.00 0.00 0.00 0.00 0.00 0.00 0.00 0.00 0.00 0.00 0.00 0.00 0.00 0.00 0.00 0.00 0.00 0.00 0.00 0.00 0.00 0.00 0.00 0.00 0.00 0.00 0.00 0.00 0.00
0.00 0.00 0.00 0.00 0.00 0.00 0.00 0.00 0.00 0.00 0.00 0.00 0.00 0.00 0.00 0.00 0.00 0.00 0.00 0.00 0.00 0.00 0.00 0.00 0.00 0.00 0.00 0.00 0.00 0.00 0.00 0.00 0.00 0.00 0.00 0.00 0.00 0.00 0.00 0.00 0.00 0.00 0.00 0.00 0.00 0.00 0.00 0.00 0.00
0.00 0.00 0.00 0.00 0.00 0.00 0.00 0.00 0.00 0.00 0.00 0.00 0.00 0.00 0.00 0.00 0.00 0.00 0.00 0.00 0.00 0.00 0.00 0.00 0.00 0.00 0.00 0.00 0.00 0.00 0.00 0.00 0.00 0.00 0.00 0.00 0.00 0.00 0.00 0.00 0.00 0.00 0.00 0.00 0.00 0.00 0.00 0.00 0.00
0.00 0.00 0.00 0.00 0.00 0.00 0.00 0.00 0.00 0.00 0.00 0.00 0.00 0.00 0.00 0.00 0.00 0.00 0.00 0.00 0.00 0.00 0.00 0.00 0.00 0.00 0.00 0.00 0.00 0.00 0.00 0.00 0.00 0.00 0.00 0.00 0.00 0.00 0.00 0.00 0.00 0.00 0.00 0.00 0.00 0.00 0.00 0.00 0.00
0.01 0.00 0.00 0.00 0.00 0.00 0.00 0.00 0.00 0.00 0.00 0.00 0.00 0.00 0.00 0.00 0.00 0.00 0.00 0.00 0.00 0.00 0.00 0.00 0.00 0.00 0.00 0.00 0.00 0.00 0.00 0.00 0.00 0.00 0.00 0.00 0.00 0.00 0.00 0.00 0.00 0.00 0.00 0.00 0.00 0.00 0.00 0.00 0.00
0.03 0.02 0.00 0.00 0.00 0.00 0.00 0.00 0.00 0.00 0.00 0.00 0.00 0.00 0.00 0.00 0.00 0.00 0.00 0.00 0.00 0.00 0.00 0.00 0.00 0.00 0.00 0.00 0.00 0.00 0.00 0.00 0.00 0.00 0.00 0.00 0.00 0.00 0.00 0.00 0.00 0.00 0.00 0.00 0.00 0.00 0.00 0.00 0.00
0.03 0.01 0.00 0.00 0.00 0.00 0.00 0.00 0.00 0.00 0.00 0.00 0.00 0.00 0.00 0.00 0.00 0.00 0.00 0.00 0.00 0.00 0.00 0.00 0.00 0.00 0.00 0.00 0.00 0.00 0.00 0.00 0.00 0.00 0.00 0.00 0.00 0.00 0.00 0.00 0.00 0.00 0.00 0.00 0.00 0.00 0.00 0.00 0.00
0.01 0.01 0.01 0.00 0.00 0.00 0.00 0.00 0.00 0.01 0.01 0.00 0.00 0.00 0.00 0.00 0.00 0.00 0.00 0.00 0.00 0.00 0.00 0.00 0.00 0.00 0.00 0.00 0.00 0.00 0.00 0.00 0.00 0.00 0.00 0.00 0.00 0.00 0.00 0.00 0.00 0.00 0.00 0.00 0.00 0.00 0.00 0.00 0.00
0.00 0.00 0.00 0.00 0.00 0.00 0.00 0.00 0.00 0.02 0.06 0.04 0.01 0.00 0.00 0.00 0.00 0.00 0.00 0.00 0.00 0.00 0.00 0.00 0.00 0.00 0.00 0.00 0.00 0.00 0.00 0.00 0.00 0.00 0.00 0.00 0.00 0.00 0.00 0.00 0.00 0.00 0.00 0.00 0.00 0.00 0.00 0.00 0.00
0.01 0.00 0.00 0.00 0.00 0.00 0.00 0.00 0.00 0.00 0.01 0.02 0.00 0.00 0.00 0.00 0.00 0.00 0.00 0.00 0.00 0.00 0.00 0.00 0.00 0.00 0.00 0.00 0.00 0.00 0.00 0.00 0.00 0.00 0.00 0.00 0.00 0.00 0.00 0.00 0.00 0.00 0.00 0.00 0.00 0.00 0.00 0.00 0.00
0.00 0.00 0.00 0.00 0.00 0.00 0.00 0.00 0.00 0.00 0.00 0.03 0.06 0.08 0.02 0.00 0.00 0.00 0.00 0.00 0.00 0.00 0.00 0.00 0.00 0.00 0.00 0.00 0.00 0.00 0.00 0.00 0.00 0.00 0.00 0.00 0.00 0.00 0.00 0.00 0.00 0.00 0.00 0.00 0.00 0.00 0.00 0.00 0.00
0.00 0.00 0.00 0.00 0.00 0.00 0.00 0.00 0.00 0.00 0.00 0.00 0.01 0.02 0.02 0.00 0.00 0.00 0.00 0.00 0.00 0.00 0.00 0.00 0.00 0.00 0.01 0.00 0.00 0.00 0.00 0.00 0.00 0.00 0.00 0.00 0.00 0.00 0.00 0.00 0.00 0.00 0.00 0.00 0.00 0.00 0.00 0.00 0.00
0.00 0.00 0.00 0.00 0.00 0.00 0.01 0.01 0.00 0.00 0.00 0.00 0.00 0.00 0.02 0.03 0.02 0.01 0.01 0.00 0.00 0.00 0.00 0.01 0.02 0.04 0.03 0.00 0.00 0.00 0.00 0.00 0.00 0.00 0.00 0.00 0.00 0.00 0.00 0.00 0.00 0.00 0.00 0.00 0.00 0.00 0.00 0.00 0.00
0.00 0.00 0.00 0.00 0.00 0.00 0.00 0.00 0.00 0.00 0.00 0.00 0.00 0.00 0.01 0.03 0.04 0.05 0.04 0.01 0.00 0.00 0.01 0.03 0.04 0.04 0.04 0.02 0.00 0.00 0.00 0.00 0.00 0.00 0.00 0.00 0.00 0.00 0.00 0.00 0.00 0.00 0.00 0.00 0.00 0.00 0.00 0.00 0.00
0.00 0.00 0.01 0.00 0.00 0.00 0.00 0.00 0.00 0.00 0.00 0.00 0.00 0.00 0.00 0.02 0.05 0.06 0.07 0.06 0.04 0.03 0.01 0.01 0.02 0.02 0.03 0.02 0.01 0.00 0.00 0.00 0.00 0.00 0.00 0.00 0.00 0.00 0.00 0.00 0.00 0.00 0.00 0.00 0.00 0.00 0.00 0.00 0.00
0.00 0.00 0.00 0.00 0.00 0.00 0.00 0.00 0.00 0.00 0.00 0.00 0.00 0.00 0.00 0.01 0.03 0.03 0.04 0.06 0.07 0.04 0.02 0.01 0.01 0.01 0.01 0.00 0.00 0.00 0.00 0.00 0.00 0.00 0.00 0.00 0.00 0.00 0.00 0.00 0.00 0.00 0.00 0.00 0.00 0.00 0.00 0.00 0.00
0.00 0.00 0.00 0.00 0.00 0.00 0.00 0.00 0.00 0.00 0.00 0.00 0.00 0.00 0.00 0.00 0.01 0.01 0.01 0.02 0.04 0.03 0.01 0.00 0.00 0.00 0.00 0.00 0.00 0.00 0.00 0.00 0.00 0.00 0.00 0.00 0.00 0.00 0.00 0.00 0.00 0.00 0.00 0.00 0.00 0.00 0.00 0.00 0.00
0.00 0.00 0.00 0.00 0.00 0.00 0.00 0.00 0.00 0.00 0.00 0.00 0.00 0.00 0.00 0.00 0.00 0.00 0.00 0.00 0.01 0.01 0.00 0.00 0.00 0.00 0.00 0.00 0.00 0.00 0.00 0.00 0.00 0.00 0.00 0.00 0.00 0.00 0.00 0.00 0.00 0.00 0.00 0.00 0.00 0.00 0.00 0.00 0.00
0.00 0.00 0.00 0.00 0.00 0.00 0.00 0.00 0.00 0.00 0.00 0.00 0.00 0.00 0.00 0.00 0.00 0.00 0.00 0.00 0.00 0.00 0.00 0.00 0.00 0.00 0.00 0.00 0.00 0.00 0.00 0.00 0.00 0.00 0.00 0.00 0.00 0.00 0.00 0.00 0.00 0.00 0.00 0.00 0.00 0.00 0.00 0.00 0.00
0.00 0.00 0.00 0.00 0.00 0.00 0.00 0.00 0.00 0.00 0.00 0.00 0.00 0.00 0.00 0.00 0.00 0.00 0.00 0.00 0.00 0.00 0.00 0.00 0.00 0.00 0.00 0.00 0.00 0.00 0.00 0.00 0.00 0.00 0.00 0.00 0.00 0.00 0.00 0.00 0.00 0.00 0.00 0.00 0.00 0.00 0.00 0.00 0.00
MSLP
1013.74 1013.67 1013.74 1013.97 1015.24 1015.55 1015.06 1014.42 1013.96 1013.81 1014.20 1014.74 1014.97 1015.64 1016.17 1016.87 1017.43 1018.48 1017.89 1017.88 1017.73 1018.26 1018.50 1018.61 1018.79 1018.87 1018.88 1019.01 1019.35 1019.71 1020.04 1020.18 1020.38 1020.59 1020.90 1021.05 1021.21 1021.34 1021.44 1021.51 1021.52 1021.58 1021.60 1021.65 1021.69 1021.73 1021.74 1021.72 1021.65
1013.80 1013.73 1013.97 1014.88 1015.53 1016.09 1015.30 1014.37 1013.95 1014.00 1014.54 1014.90 1015.29 1016.03 1016.47 1017.13 1017.33 1017.73 1017.93 1018.05 1017.98 1018.33 1018.59 1018.76 1018.90 1018.90 1018.86 1018.95 1019.40 1019.75 1020.09 1020.29 1020.55 1020.86 1021.01 1021.06 1021.22 1021.43 1021.58 1021.67 1021.66 1021.72 1021.77 1021.82 1021.86 1021.85 1021.88 1021.90 1021.86
1013.75 1013.97 1014.71 1015.47 1015.86 1015.80 1015.19 1014.43 1013.94 1014.43 1014.80 1014.88 1015.87 1016.42 1016.74 1017.06 1017.48 1017.55 1017.59 1017.96 1018.20 1018.53 1018.75 1018.97 1019.05 1019.07 1019.05 1019.20 1019.52 1019.88 1020.18 1020.37 1020.67 1021.03 1021.24 1021.31 1021.44 1021.64 1021.77 1021.90 1021.96 1022.01 1022.06 1022.04 1022.06 1022.13 1022.16 1022.15 1022.11
1014.33 1014.53 1015.58 1015.61 1015.76 1014.97 1014.43 1013.94 1013.92 1014.73 1014.91 1015.31 1015.93 1016.92 1016.91 1016.63 1017.16 1017.31 1017.60 1017.85 1018.27 1018.69 1018.90 1019.08 1019.22 1019.31 1019.34 1019.47 1019.74 1020.10 1020.39 1020.58 1020.84 1021.20 1021.36 1021.48 1021.63 1021.74 1022.01 1022.17 1022.23 1022.26 1022.30 1022.34 1022.36 1022.36 1022.31 1022.28 1022.21
1014.86 1015.32 1015.70 1015.78 1015.27 1014.48 1013.76 1013.58 1013.77 1014.51 1014.99 1015.73 1016.00 1016.93 1017.29 1017.24 1017.08 1017.39 1017.81 1017.88 1018.38 1018.78 1019.07 1019.27 1019.38 1019.58 1019.69 1019.80 1020.06 1020.34 1020.59 1020.89 1021.16 1021.36 1021.52 1021.73 1021.93 1022.05 1022.23 1022.38 1022.48 1022.53 1022.55 1022.51 1022.48 1022.47 1022.41 1022.32 1022.26
1015.58 1015.94 1015.95 1015.61 1015.03 1014.18 1013.39 1013.20 1013.56 1014.04 1014.78 1015.56 1016.08 1016.77 1017.38 1017.38 1017.56 1017.80 1017.90 1018.09 1018.32 1018.71 1019.16 1019.40 1019.67 1019.86 1020.04 1020.19 1020.39 1020.69 1020.98 1021.23 1021.47 1021.68 1021.81 1021.97 1022.16 1022.29 1022.43 1022.53 1022.63 1022.73 1022.76 1022.71 1022.65 1022.58 1022.48 1022.38 1022.29
1016.06 1016.40 1015.74 1015.16 1014.76 1014.00 1013.13 1012.92 1013.38 1013.79 1014.53 1015.10 1015.48 1016.82 1017.55 1017.72 1017.84 1017.88 1018.03 1018.25 1018.52 1018.89 1019.17 1019.51 1019.85 1020.15 1020.42 1020.60 1020.80 1021.00 1021.27 1021.50 1021.66 1021.85 1022.08 1022.24 1022.39 1022.52 1022.67 1022.75 1022.79 1022.85 1022.85 1022.82 1022.78 1022.74 1022.67 1022.57 1022.40
1015.99 1016.54 1016.10 1015.13 1014.59 1013.66 1012.88 1012.90 1013.06 1013.36 1014.38 1014.87 1014.89 1015.97 1017.01 1017.02 1017.67 1018.04 1018.34 1018.49 1018.96 1019.25 1019.43 1019.69 1020.05 1020.34 1020.74 1020.97 1021.11 1021.32 1021.57 1021.79 1021.98 1022.15 1022.34 1022.48 1022.61 1022.70 1022.79 1022.84 1022.86 1022.85 1022.84 1022.83 1022.81 1022.71 1022.67 1022.59 1022.48
1015.66 1016.25 1016.25 1015.41 1014.54 1013.39 1012.89 1013.03 1013.23 1013.32 1014.04 1014.67 1014.86 1015.20 1015.53 1016.24 1017.39 1018.11 1018.55 1018.70 1019.02 1019.50 1019.68 1019.85 1020.21 1020.50 1020.81 1021.19 1021.43 1021.60 1021.83 1022.02 1022.20 1022.37 1022.51 1022.65 1022.82 1022.94 1023.01 1023.01 1022.98 1022.92 1022.91 1022.95 1022.87 1022.71 1022.58 1022.54 1022.48
1015.47 1015.90 1015.63 1014.77 1014.28 1013.47 1012.80 1012.72 1012.95 1013.53 1014.12 1014.72 1014.96 1015.27 1015.62 1016.60 1017.14 1017.63 1018.22 1018.47 1018.80 1019.37 1019.68 1019.89 1020.22 1020.61 1020.91 1021.10 1021.58 1021.82 1022.05 1022.18 1022.35 1022.49 1022.60 1022.69 1022.84 1022.99 1023.02 1023.02 1022.99 1022.99 1023.04 1022.95 1022.88 1022.80 1022.69 1022.61 1022.50
1015.13 1014.98 1014.75 1014.07 1013.74 1013.57 1013.35 1012.87 1012.77 1013.20 1013.99 1013.33 1013.95 1015.08 1016.03 1016.48 1017.16 1017.47 1017.90 1018.22 1018.39 1019.05 1019.69 1020.01 1020.31 1020.57 1020.91 1021.17 1021.59 1021.92 1022.19 1022.28 1022.43 1022.59 1022.75 1022.82 1022.88 1023.00 1023.02 1023.03 1023.05 1023.01 1023.07 1023.05 1023.02 1022.99 1022.99 1022.89 1022.83
1014.96 1014.24 1014.08 1013.68 1013.36 1013.49 1013.45 1012.84 1012.71 1012.67 1012.24 1012.11 1013.02 1014.12 1015.48 1016.09 1016.58 1017.06 1017.61 1018.10 1018.42 1018.87 1019.49 1019.90 1020.29 1020.65 1021.02 1021.34 1021.55 1021.89 1022.13 1022.34 1022.55 1022.69 1022.79 1022.98 1023.11 1023.17 1023.17 1023.21 1023.17 1023.16 1023.04 1023.22 1023.26 1023.34 1023.32 1023.29 1023.14
1014.60 1014.00 1013.69 1013.43 1013.21 1013.13 1013.12 1013.18 1012.64 1012.39 1012.03 1012.18 1013.09 1014.35 1015.17 1015.66 1016.31 1017.10 1017.47 1018.04 1018.40 1018.81 1019.31 1019.76 1020.05 1020.62 1021.01 1021.39 1021.73 1021.89 1022.11 1022.33 1022.52 1022.70 1022.82 1022.98 1023.09 1023.21 1023.26 1023.17 1023.16 1023.29 1023.23 1023.40 1023.58 1023.69 1023.66 1023.57 1023.39
1014.13 1013.69 1013.40 1013.10 1012.88 1012.78 1013.10 1012.83 1012.95 1012.43 1012.60 1012.88 1013.25 1014.11 1014.96 1015.46 1015.80 1016.82 1017.27 1017.77 1018.17 1018.54 1019.00 1019.47 1019.87 1020.28 1020.90 1021.40 1021.59 1021.82 1022.05 1022.33 1022.64 1022.77 1022.85 1022.92 1023.01 1023.14 1023.27 1023.31 1023.58 1023.67 1023.69 1023.66 1023.84 1023.83 1024.19 1024.21 1023.99
1014.37 1014.09 1013.55 1012.28 1012.52 1012.81 1012.91 1012.78 1012.89 1012.66 1012.81 1013.14 1013.37 1013.90 1014.60 1015.36 1015.99 1016.17 1016.65 1017.16 1017.67 1018.16 1018.63 1019.24 1019.62 1019.99 1020.49 1020.98 1021.32 1021.64 1022.00 1022.31 1022.64 1022.82 1022.91 1023.00 1022.97 1023.12 1023.40 1023.73 1024.06 1024.19 1024.12 1024.12 1024.13 1024.04 1024.31 1024.40 1024.26
1014.38 1014.29 1013.03 1011.15 1012.29 1012.24 1013.37 1012.69 1012.41 1012.96 1012.96 1013.06 1013.63 1014.00 1014.28 1014.78 1015.49 1016.11 1016.53 1016.74 1017.39 1017.81 1018.47 1018.88 1019.24 1019.81 1020.20 1020.58 1021.04 1021.70 1022.17 1022.54 1022.89 1023.02 1023.21 1023.37 1023.56 1023.65 1023.80 1024.22 1024.53 1024.58 1024.70 1024.68 1024.47 1024.63 1024.75 1024.88 1024.86
1014.15 1012.81 1012.43 1012.12 1011.85 1012.31 1012.76 1012.44 1012.03 1012.66 1013.01 1012.96 1013.21 1013.64 1014.11 1014.80 1015.18 1015.71 1016.25 1016.82 1017.09 1017.47 1018.13 1018.74 1019.06 1019.50 1020.26 1020.64 1021.17 1021.89 1022.53 1023.04 1023.46 1023.58 1023.75 1023.82 1023.98 1024.09 1024.30 1024.70 1025.02 1024.96 1024.95 1024.98 1024.99 1025.16 1025.26 1025.25 1025.29
1014.63 1014.06 1013.04 1012.04 1011.70 1012.05 1012.19 1012.11 1011.91 1012.18 1012.61 1012.51 1012.66 1013.24 1013.71 1014.22 1014.70 1015.11 1015.76 1016.51 1016.89 1017.35 1017.89 1018.49 1019.01 1019.50 1020.11 1020.83 1021.60 1022.28 1022.89 1023.59 1024.00 1024.25 1024.51 1024.48 1024.51 1024.67 1024.94 1025.24 1025.49 1025.54 1025.67 1025.73 1025.62 1025.62 1025.86 1026.08 1025.87
1015.30 1014.93 1014.49 1013.71 1013.35 1012.43 1011.26 1011.81 1011.88 1011.62 1012.14 1012.19 1012.56 1013.09 1013.35 1013.86 1014.39 1015.05 1015.47 1016.22 1016.89 1017.27 1017.71 1018.26 1018.81 1019.71 1020.23 1021.13 1021.96 1022.69 1023.36 1024.10 1024.54 1024.81 1025.23 1025.30 1025.20 1025.30 1025.44 1025.70 1025.80 1026.25 1026.50 1026.47 1026.14 1026.06 1026.09 1026.06 1026.11
1015.57 1014.89 1014.90 1014.36 1013.82 1013.30 1011.57 1011.11 1011.66 1011.77 1011.22 1011.37 1011.74 1012.53 1013.08 1013.89 1014.44 1014.86 1015.58 1016.14 1016.56 1017.17 1017.56 1018.02 1018.58 1019.28 1019.98 1020.52 1021.51 1022.48 1023.60 1024.63 1025.20 1025.53 1025.72 1025.96 1026.20 1026.18 1026.29 1026.55 1026.63 1026.57 1026.92 1026.91 1026.95 1026.52 1026.52 1026.73 1026.85
1015.39 1015.60 1014.74 1014.71 1014.33 1013.79 1013.61 1010.77 1010.94 1010.48 1010.73 1011.29 1011.50 1011.91 1012.73 1013.29 1014.29 1015.07 1015.88 1016.54 1016.88 1017.34 1017.78 1018.22 1018.63 1019.20 1019.85 1020.55 1021.60 1022.81 1023.91 1024.68 1025.40 1026.06 1026.46 1026.70 1026.75 1026.77 1026.91 1026.87 1027.06 1027.49 1027.47 1027.46 1027.63 1027.54 1027.25 1027.25 1027.80
1015.00 1014.56 1014.78 1014.64 1014.75 1013.75 1012.83 1010.53 1009.38 1010.14 1010.91 1010.87 1011.09 1011.89 1012.66 1013.71 1014.60 1015.41 1016.54 1017.21 1017.65 1017.94 1018.36 1018.74 1019.04 1019.52 1020.09 1020.68 1021.50 1022.33 1023.25 1024.29 1025.58 1026.27 1026.86 1027.39 1027.61 1027.53 1027.52 1027.85 1027.98 1027.94 1028.24 1028.18 1028.15 1028.51 1028.39 1028.21 1028.67
1015.20 1015.00 1014.84 1014.40 1014.38 1013.69 1012.00 1012.00 1008.76 1008.97 1010.06 1010.51 1011.10 1011.30 1012.69 1013.63 1014.52 1015.61 1016.82 1017.58 1018.55 1018.65 1019.05 1019.43 1019.79 1020.02 1020.42 1020.91 1021.49 1022.36 1023.68 1024.68 1025.60 1026.27 1026.92 1027.63 1028.02 1028.49 1028.52 1028.32 1028.58 1028.57 1028.73 1029.11 1028.99 1029.24 1029.32 1029.31 1029.44
1014.74 1014.82 1014.54 1014.11 1013.40 1012.04 1010.02 1011.48 1008.26 1007.48 1007.61 1009.80 1010.83 1011.27 1012.67 1013.67 1015.13 1016.21 1017.32 1018.45 1018.88 1019.16 1019.66 1020.00 1020.32 1020.96 1021.14 1021.52 1022.27 1023.10 1024.20 1025.24 1026.05 1026.46 1027.04 1027.93 1028.50 1028.39 1028.62 1028.73 1029.02 1029.18 1029.79 1029.91 1030.01 1030.08 1030.16 1030.24 1030.34
1014.38 1014.32 1013.65 1013.36 1011.65 1009.93 1008.51 1009.53 1007.77 1007.09 1007.37 1008.02 1010.18 1011.28 1013.16 1014.29 1015.36 1016.62 1017.79 1018.70 1019.16 1019.39 1019.93 1020.44 1020.85 1021.66 1021.67 1022.58 1023.18 1023.58 1024.78 1025.45 1025.59 1025.77 1027.53 1028.02 1028.71 1028.87 1029.17 1029.44 1029.78 1029.91 1030.21 1030.49 1030.55 1030.55 1030.89 1031.10 1031.39
1013.92 1013.21 1012.33 1012.51 1012.34 1011.76 1009.66 1008.15 1008.16 1008.52 1008.07 1008.35 1009.52 1011.24 1013.45 1014.86 1016.11 1017.09 1018.09 1018.87 1019.19 1019.79 1020.21 1020.72 1021.14 1021.62 1022.13 1023.10 1024.04 1024.53 1025.27 1025.90 1026.43 1026.47 1027.71 1028.38 1028.74 1029.15 1029.78 1030.05 1030.29 1030.51 1030.57 1030.86 1030.83 1030.93 1031.21 1031.64 1031.90
1013.55 1013.11 1012.65 1012.52 1012.55 1011.82 1008.88 1009.14 1009.11 1009.23 1008.78 1009.15 1010.98 1012.33 1014.06 1015.51 1016.64 1017.48 1018.48 1019.17 1019.83 1020.15 1020.68 1021.24 1021.63 1022.24 1023.08 1023.73 1023.94 1025.15 1025.87 1026.85 1027.22 1027.26 1028.01 1028.59 1029.26 1029.62 1030.14 1030.45 1030.75 1030.91 1031.05 1031.35 1031.43 1031.73 1032.04 1032.16 1032.24
1012.95 1012.84 1012.88 1012.43 1012.32 1011.55 1010.67 1009.98 1010.30 1010.06 1010.27 1010.89 1012.21 1013.27 1014.60 1016.01 1016.94 1018.15 1018.77 1019.35 1020.08 1020.77 1021.46 1021.68 1022.26 1023.24 1024.04 1024.55 1024.98 1025.12 1026.96 1027.12 1027.45 1027.78 1028.62 1029.15 1029.76 1030.08 1030.43 1030.89 1031.28 1031.46 1031.65 1031.81 1032.02 1032.21 1032.31 1032.38 1032.61
1013.25 1012.76 1012.27 1012.29 1012.71 1012.89 1011.46 1010.57 1010.98 1010.93 1011.35 1012.00 1012.93 1014.21 1015.30 1016.61 1017.20 1018.56 1019.18 1019.80 1020.62 1021.37 1022.06 1021.99 1022.36 1024.06 1024.58 1025.64 1025.65 1026.28 1027.07 1027.32 1027.88 1028.54 1029.15 1029.77 1030.05 1030.31 1030.98 1031.51 1031.76 1031.79 1032.03 1032.32 1032.49 1032.67 1032.79 1033.06 1033.01
1013.42 1013.02 1012.10 1012.06 1012.56 1012.37 1012.24 1011.85 1011.72 1011.76 1011.91 1012.79 1013.94 1015.09 1016.11 1016.92 1017.90 1018.71 1019.51 1020.41 1021.49 1021.78 1022.76 1022.96 1022.56 1024.74 1026.04 1025.72 1026.23 1026.93 1027.46 1028.09 1028.90 1029.25 1030.02 1030.42 1030.57 1030.91 1031.38 1031.77 1032.04 1032.33 1032.45 1032.75 1032.82 1033.22 1033.21 1033.28 1033.48
Thickness
5711 5712 5714 5709 5682 5675 5676 5693 5707 5711 5710 5708 5713 5708 5705 5701 5700 5689 5704 5706 5708 5704 5702 5701 5700 5700 5701 5700 5697 5694 5692 5691 5690 5689 5687 5687 5686 5685 5685 5685 5685 5685 5685 5685 5684 5683 5683 5682 5682
5707 5710 5706 5688 5668 5659 5668 5698 5704 5712 5710 5711 5710 5705 5702 5697 5700 5699 5702 5705 5705 5704 5702 5701 5700 5701 5701 5701 5698 5695 5692 5690 5689 5688 5687 5687 5686 5685 5684 5684 5684 5683 5683 5682 5681 5680 5679 5678 5678
5705 5704 5689 5672 5659 5663 5670 5696 5706 5705 5707 5713 5703 5703 5701 5698 5699 5702 5706 5704 5703 5701 5700 5699 5698 5698 5699 5698 5696 5693 5691 5690 5688 5686 5685 5685 5684 5683 5682 5681 5680 5679 5678 5678 5677 5676 5674 5673 5672
5692 5691 5678 5665 5668 5681 5690 5702 5706 5699 5706 5709 5704 5693 5703 5709 5703 5705 5705 5703 5702 5699 5698 5697 5696 5695 5696 5695 5693 5691 5688 5687 5686 5683 5683 5682 5681 5680 5678 5677 5676 5676 5675 5673 5672 5671 5671 5670 5669
5683 5675 5661 5662 5672 5688 5698 5706 5707 5702 5702 5699 5704 5693 5693 5704 5706 5705 5702 5702 5700 5697 5695 5694 5694 5692 5692 5692 5690 5688 5686 5685 5683 5681 5681 5679 5677 5676 5675 5674 5672 5671 5670 5669 5668 5667 5667 5667 5666
5663 5662 5654 5659 5670 5688 5700 5707 5708 5706 5702 5697 5697 5694 5695 5701 5701 5700 5701 5698 5697 5697 5694 5692 5691 5690 5688 5688 5686 5684 5682 5681 5680 5678 5677 5676 5674 5673 5672 5671 5670 5668 5666 5665 5665 5664 5664 5664 5663
5656 5648 5655 5666 5669 5681 5697 5707 5703 5703 5698 5698 5703 5690 5692 5693 5697 5699 5698 5696 5694 5694 5694 5692 5690 5687 5685 5684 5683 5681 5679 5677 5677 5675 5673 5673 5672 5671 5670 5668 5667 5665 5664 5663 5662 5661 5660 5660 5660
5650 5644 5649 5662 5665 5677 5698 5701 5707 5706 5700 5703 5707 5692 5686 5695 5695 5696 5694 5693 5690 5690 5691 5690 5688 5686 5683 5682 5680 5679 5677 5675 5674 5673 5672 5671 5670 5669 5668 5667 5666 5664 5663 5662 5661 5661 5659 5658 5658
5655 5633 5632 5654 5662 5682 5693 5694 5700 5707 5699 5699 5703 5705 5706 5701 5695 5692 5689 5689 5688 5687 5687 5687 5686 5685 5682 5679 5677 5676 5674 5673 5671 5671 5670 5670 5669 5667 5665 5664 5663 5662 5662 5660 5659 5658 5658 5657 5657
5643 5626 5638 5659 5666 5675 5687 5692 5692 5695 5694 5694 5698 5701 5700 5694 5693 5691 5688 5686 5686 5684 5684 5684 5684 5682 5680 5678 5675 5674 5672 5671 5670 5669 5669 5669 5667 5665 5664 5664 5662 5661 5660 5659 5657 5656 5655 5654 5654
5640 5634 5650 5659 5666 5670 5673 5683 5691 5688 5683 5706 5701 5693 5690 5691 5689 5690 5689 5687 5687 5684 5682 5681 5680 5680 5678 5676 5674 5672 5670 5669 5668 5667 5666 5665 5665 5663 5662 5662 5660 5659 5658 5657 5655 5653 5651 5650 5648
5630 5644 5653 5660 5664 5662 5664 5679 5681 5690 5706 5714 5708 5701 5692 5690 5688 5688 5686 5685 5685 5683 5680 5679 5677 5675 5673 5672 5672 5670 5668 5667 5665 5664 5663 5662 5661 5660 5660 5659 5657 5655 5654 5652 5650 5648 5646 5644 5643
5624 5639 5648 5654 5655 5657 5661 5662 5677 5683 5700 5705 5700 5695 5690 5690 5687 5683 5683 5683 5682 5681 5679 5676 5675 5671 5670 5668 5667 5667 5665 5664 5662 5661 5659 5658 5657 5656 5655 5655 5653 5651 5649 5646 5644 5641 5639 5637 5636
5624 5632 5640 5648 5651 5655 5649 5658 5665 5680 5684 5689 5693 5690 5687 5687 5687 5681 5680 5678 5677 5678 5677 5675 5673 5670 5665 5663 5664 5663 5662 5660 5657 5656 5656 5655 5654 5653 5651 5650 5647 5645 5643 5642 5639 5637 5630 5627 5626
5612 5612 5622 5643 5646 5642 5644 5644 5648 5670 5675 5678 5684 5685 5684 5681 5680 5682 5680 5677 5676 5675 5675 5671 5671 5669 5666 5662 5661 5660 5657 5656 5653 5652 5651 5650 5650 5649 5646 5642 5639 5637 5637 5635 5634 5631 5626 5621 5619
5596 5596 5604 5646 5635 5640 5629 5626 5654 5657 5664 5670 5673 5675 5680 5680 5677 5675 5676 5677 5674 5674 5670 5670 5670 5666 5665 5663 5659 5654 5652 5650 5648 5647 5645 5643 5641 5640 5638 5634 5631 5629 5626 5625 5625 5622 5617 5611 5606
5588 5595 5602 5613 5630 5629 5624 5621 5651 5651 5653 5660 5667 5670 5673 5672 5673 5672 5672 5669 5670 5670 5667 5665 5666 5664 5660 5658 5655 5650 5645 5642 5639 5639 5637 5636 5634 5632 5629 5625 5622 5621 5619 5616 5614 5610 5606 5600 5594
5565 5565 5593 5602 5626 5621 5619 5619 5643 5644 5648 5657 5663 5665 5668 5670 5671 5671 5670 5666 5665 5665 5664 5662 5660 5660 5656 5651 5646 5643 5640 5634 5631 5629 5627 5627 5626 5623 5620 5616 5612 5609 5607 5604 5601 5598 5591 5585 5581
5551 5548 5555 5575 5590 5606 5618 5619 5632 5641 5642 5647 5652 5654 5661 5664 5667 5665 5667 5664 5661 5662 5661 5658 5656 5651 5650 5643 5638 5634 5631 5626 5624 5620 5616 5614 5614 5613 5610 5606 5603 5597 5593 5589 5588 5584 5579 5576 5571
5528 5542 5547 5566 5578 5586 5610 5615 5618 5627 5638 5647 5652 5652 5655 5655 5657 5661 5660 5660 5661 5658 5657 5655 5653 5649 5645 5643 5636 5629 5622 5615 5611 5609 5607 5604 5600 5599 5596 5593 5590 5587 5580 5575 5571 5571 5568 5561 5556
5522 5524 5547 5552 5563 5569 5565 5600 5610 5624 5631 5635 5643 5649 5650 5654 5653 5651 5649 5648 5649 5650 5649 5646 5646 5644 5640 5636 5629 5621 5612 5607 5602 5597 5594 5590 5588 5587 5584 5581 5577 5569 5565 5561 5555 5552 5552 5548 5539
5513 5522 5535 5541 5546 5561 5565 5584 5609 5614 5612 5624 5634 5639 5642 5639 5640 5638 5633 5632 5634 5636 5636 5635 5636 5634 5632 5629 5623 5618 5612 5604 5593 5587 5583 5578 5574 5572 5569 5565 5560 5556 5549 5546 5541 5535 5533 5531 5522
5495 5518 5526 5531 5529 5536 5561 5556 5600 5617 5604 5616 5623 5639 5639 5635 5635 5629 5623 5622 5618 5622 5622 5622 5623 5624 5623 5620 5616 5609 5599 5593 5586 5581 5575 5567 5562 5555 5553 5551 5544 5540 5536 5530 5526 5521 5516 5512 5507
5503 5501 5513 5524 5528 5542 5575 5557 5587 5607 5625 5616 5621 5632 5628 5626 5619 5616 5610 5606 5608 5612 5612 5612 5613 5611 5610 5608 5603 5598 5589 5581 5575 5569 5563 5556 5548 5544 5540 5536 5530 5526 5519 5515 5510 5505 5501 5496 5490
5496 5507 5518 5531 5541 5564 5591 5572 5596 5618 5628 5635 5624 5622 5615 5612 5610 5606 5601 5599 5600 5603 5602 5602 5602 5597 5591 5590 5588 5585 5573 5567 5569 5566 5549 5544 5538 5534 5527 5522 5516 5512 5506 5500 5495 5492 5485 5479 5471
5494 5511 5530 5528 5542 5545 5564 5578 5592 5587 5607 5631 5624 5615 5601 5598 5597 5596 5593 5592 5593 5591 5592 5593 5593 5592 5587 5578 5573 5572 5565 5559 5548 5550 5538 5532 5527 5521 5513 5508 5502 5497 5493 5486 5482 5479 5472 5463 5455
5492 5511 5515 5526 5527 5533 5562 5563 5574 5577 5597 5607 5599 5596 5589 5586 5585 5584 5582 5582 5580 5581 5582 5581 5580 5578 5573 5568 5567 5558 5551 5542 5537 5535 5526 5520 5512 5506 5501 5495 5489 5484 5479 5473 5468 5462 5454 5447 5441
5500 5504 5518 5519 5534 5539 5557 5565 5569 5574 5577 5580 5582 5582 5576 5570 5570 5569 5573 5573 5571 5570 5568 5569 5566 5561 5556 5552 5550 5549 5531 5530 5527 5521 5512 5506 5498 5493 5487 5481 5475 5470 5465 5459 5453 5446 5439 5433 5424
5490 5508 5515 5528 5527 5528 5541 5557 5535 5552 5568 5568 5570 5566 5564 5562 5564 5562 5563 5562 5559 5556 5556 5558 5558 5545 5541 5531 5533 5528 5521 5518 5512 5506 5501 5494 5489 5484 5475 5468 5462 5458 5452 5444 5438 5431 5423 5414 5407
5487 5488 5521 5531 5525 5525 5529 5547 5530 5546 5561 5558 5553 5550 5549 5552 5551 5551 5549 5547 5543 5546 5540 5539 5546 5530 5520 5525 5520 5513 5509 5504 5497 5494 5486 5481 5477 5471 5464 5457 5450 5444 5438 5430 5423 5413 5406 5399 5391